[[{"header":{"parameterUnit":"m.s-1","parameterCategory":2,"la1":30.2991,"la2":30.254,"lo1":-89.0895,"lo2":-89.0444,"dy":0.0017,"dx":0.0017,"nx":28,"ny":28,"refTime":"2024-05-15T03:00:00:Z","depth":"0","parameterNumber":2,"parameterNumberName":"U-component_of_CURRENTS"},"data":[0,0,0,0,0,0,0,0,0,0,0,0,0,0,0,0,0,0,0,0,0,0,0,0,0,0,0,0,0,0,0,0,0,0,0,0,0,0,0,0,0,0,0,0,0,0,0,0,0,0,0,0,0,0,0,0,0,0,0.3616,0.3615,0,0.3549,0.3548,0.3548,0.3527,0.3527,0.3527,0.3527,0.3501,0.35,0.35,0,0,0,0,0,0,0,0,0,0,0,0,0,0.4019,0.401,0.3616,0.3615,0.3614,0.3549,0.3548,0.3548,0.3527,0.3527,0.3527,0.3527,0.3501,0.3501,0.35,0,0,0,0,0,0,0,0,0,0,0,0,0,0.389,0.4007,0.3616,0.3593,0.359,0.3549,0.3548,0.3548,0.3527,0.3527,0.3527,0.3527,0.3502,0.3501,0.35,0.3494,0,0,0.3497,0.3496,0,0,0,0,0,0,0,0,0.3897,0.3875,0.3598,0.3594,0.3591,0.3543,0.3681,0.353,0.3527,0.3554,0.3527,0.3527,0.3517,0.3514,0.3506,0.3492,0.3491,0.3496,0.3496,0.3495,0.3495,0,0,0,0,0,0,0,0.3905,0.388,0.3593,0.3596,0.3592,0.3686,0.3665,0.3654,0.354,0.3552,0.3549,0.3536,0.3516,0.3507,0.3506,0.3491,0.3496,0.3496,0.3495,0.3495,0.3515,0.3516,0,0,0,0,0,0,0.3889,0.3885,0.3595,0.3591,0.3743,0.3677,0.3654,0.3561,0.3539,0.3534,0.3536,0.3536,0.3509,0.3507,0.3505,0.3539,0.3495,0.3494,0.3494,0.3514,0.3515,0.3516,0,0,0,0,0,0,0.3897,0.3861,0.3598,0.3741,0.3713,0.3667,0.3565,0.356,0.3556,0.3526,0.3523,0.3538,0.3509,0.3506,0.3507,0.3536,0.3494,0.3493,0.3512,0.3514,0.3516,0.358,0,0,0,0,0,0,0.3907,0.3862,0.3819,0.3735,0.3704,0.3579,0.3565,0.3559,0.3545,0.3544,0.3526,0.3523,0.3509,0.3509,0.3506,0.3534,0.3492,0.3511,0.3513,0.3515,0.3576,0.3583,0.3589,0,0,0,0,0,0.3921,0.3803,0.3814,0.3782,0.3631,0.3579,0.3573,0.3548,0.3546,0.3545,0.3539,0.3524,0.3521,0.3509,0.3506,0.3533,0.351,0.3512,0.3515,0.3573,0.3582,0.3589,0,0,0,0,0,0,0.3927,0.3788,0.3798,0.364,0.3637,0.3574,0.355,0.3554,0.3547,0.3545,0.3531,0.3528,0.3549,0.3527,0.3514,0.3546,0.3516,0.3518,0.3562,0.357,0.3576,0.3588,0.3491,0,0,0,0,0,0.3919,0.3806,0.3746,0.3637,0.3625,0.3608,0.3592,0.3583,0.3555,0.3552,0.3547,0.3543,0.3556,0.3551,0.3554,0.3558,0.357,0.3576,0.3583,0.3589,0.3597,0.3645,0.3657,0.3525,0.3525,0.3525,0,0,0.3892,0.3806,0.3744,0.364,0.3624,0.3618,0.3596,0.3557,0.3575,0.355,0.3564,0.357,0.3565,0.3583,0.3589,0.3567,0.3634,0.3592,0.3597,0.3602,0.3649,0.3662,0.3674,0.3526,0.3526,0.3526,0,0,0.3803,0.3713,0.3627,0.3632,0.3609,0.3608,0.3605,0.3573,0.3581,0.36,0.36,0.3622,0.3619,0.3632,0.3636,0.3679,0.3678,0.3679,0.3711,0.3758,0.377,0.378,0.3821,0.3834,0.3671,0.3672,0.3672,0,0.3789,0.367,0.3613,0.3583,0.3592,0.3609,0.3601,0.3613,0.3602,0.3623,0.3612,0.3656,0.3649,0.3692,0.3707,0.3697,0.3719,0.3681,0.3769,0.3779,0.3789,0.3827,0.3841,0.3675,0.3675,0.3674,0.3674,0,0.3675,0.3632,0.3584,0.3558,0.3573,0.3553,0.3586,0.3615,0.3639,0.3665,0.3717,0.3719,0.3746,0.3753,0.374,0.3807,0.3801,0.3782,0.375,0.3806,0.3843,0.3857,0.368,0.3679,0.3678,0.3677,0,0,0.3471,0.35,0.3487,0.3533,0.3564,0.3553,0.3609,0.3656,0.37,0.3731,0.3783,0.3817,0.3832,0.3838,0.3836,0.3869,0.3955,0.3852,0.3853,0.3896,0.4064,0.4056,0.4069,0.3954,0.3957,0.3959,0.4066,0,0.3414,0.3398,0.3413,0.3451,0.3469,0.3544,0.3597,0.3663,0.3724,0.3785,0.3826,0.387,0.3861,0.3876,0.3917,0.3952,0.3992,0.3928,0.4,0.4002,0.3992,0.4085,0.3971,0.4058,0.4079,0.4081,0.4083,0,0.3293,0.3313,0.3338,0.345,0.3456,0.3488,0.3598,0.3649,0.3765,0.3811,0.3885,0.3924,0.3998,0.3966,0.4076,0.4038,0.4059,0.4077,0.4081,0.406,0.4019,0.4003,0.4081,0.3989,0.4103,0.4102,0.41,0,0.3206,0.3254,0.3286,0.3319,0.3434,0.3466,0.353,0.3652,0.3722,0.383,0.3902,0.3986,0.4048,0.4095,0.4162,0.4122,0.4278,0.4222,0.4237,0.4236,0.4146,0.4133,0.4145,0.4295,0.4295,0.4295,0.4294,0,0.3125,0.3146,0.3252,0.327,0.3318,0.3417,0.3487,0.3568,0.371,0.3799,0.3904,0.3996,0.4087,0.4193,0.4207,0.4293,0.4325,0.4274,0.4277,0.4165,0.4154,0.4073,0.4015,0.4299,0.4298,0.4297,0.4296,0,0.3024,0.3092,0.3137,0.3249,0.3279,0.3311,0.3462,0.3525,0.3673,0.3797,0.3838,0.404,0.4178,0.4275,0.4374,0.4371,0.4314,0.4434,0.4302,0.4288,0.4181,0.4131,0.3984,0.3869,0.4459,0.4459,0.446,0,0.2977,0.2989,0.3093,0.3119,0.316,0.3239,0.3296,0.3466,0.3552,0.3816,0.3865,0.4079,0.4207,0.4396,0.4433,0.4497,0.4343,0.4404,0.4299,0.4192,0.4138,0.3941,0.3839,0.4206,0.4205,0.4204,0.4203,0,0.2889,0.2922,0.2961,0.3023,0.3071,0.3137,0.3242,0.3318,0.352,0.3662,0.3857,0.3996,0.4234,0.4289,0.4415,0.4423,0.4202,0.4378,0.43,0.3984,0.3735,0.3619,0.4117,0.4191,0.4192,0.4193,0.4194,0.4194,0.2811,0.2819,0.2875,0.2914,0.2967,0.3018,0.3038,0.3179,0.3312,0.3496,0.3725,0.3886,0.4101,0.4282,0.4261,0.42,0.4135,0.4092,0.4056,0.3878,0.3708,0.4191,0.4245,0.4246,0.4248,0.4249,0.425,0,0.2711,0.2736,0.2772,0.2808,0.2808,0.2885,0.2975,0.2984,0.3072,0.3302,0.347,0.3735,0.3834,0.3954,0.4029,0.3913,0.369,0.3808,0.35,0.3428,0.3908,0.3841,0.377,0.3771,0.3771,0.3771,0.3771,0.3771,0.2663,0.265,0.2669,0.263,0.2652,0.2619,0.2639,0.2683,0.2805,0.2972,0.3134,0.333,0.3676,0.3831,0.3766,0.3669,0.3375,0.3238,0.3196,0.3558,0.3579,0.36,0.3525,0.3389,0.3389,0.2577,0.2571,0.2567]},{"header":{"parameterUnit":"m.s-1","parameterCategory":2,"la1":30.2991,"la2":30.254,"lo1":-89.0895,"lo2":-89.0444,"dy":0.0017,"dx":0.0017,"nx":28,"ny":28,"refTime":"2024-05-15T03:00:00:Z","depth":"0","parameterNumber":3,"parameterNumberName":"V-component_of_CURRENTS"},"data":[0,0,0,0,0,0,0,0,0,0,0,0,0,0,0,0,0,0,0,0,0,0,0,0,0,0,0,0,0,0,0,0,0,0,0,0,0,0,0,0,0,0,0,0,0,0,0,0,0,0,0,0,0,0,0,0,0,0,-0.0128,-0.0128,0,-0.0139,-0.0139,-0.0139,-0.0148,-0.0148,-0.0148,-0.0149,-0.0185,-0.0186,-0.0187,0,0,0,0,0,0,0,0,0,0,0,0,0,-0.0181,-0.018,-0.0128,-0.0128,-0.0128,-0.0139,-0.0139,-0.0139,-0.0148,-0.0148,-0.0148,-0.0149,-0.0185,-0.0186,-0.0187,0,0,0,0,0,0,0,0,0,0,0,0,0,-0.0171,-0.0179,-0.0128,-0.0135,-0.0136,-0.0139,-0.0139,-0.0139,-0.0148,-0.0148,-0.0148,-0.0149,-0.0185,-0.0186,-0.0187,-0.0189,0,0,-0.0191,-0.0191,0,0,0,0,0,0,0,0,-0.0171,-0.0169,-0.0133,-0.0134,-0.0135,-0.0143,-0.0172,-0.0157,-0.0148,-0.0142,-0.0149,-0.0149,-0.0174,-0.0176,-0.0176,-0.0191,-0.0192,-0.0191,-0.0192,-0.0192,-0.0193,0,0,0,0,0,0,0,-0.0172,-0.0169,-0.0131,-0.0134,-0.0135,-0.0161,-0.0159,-0.0169,-0.0156,-0.0143,-0.0144,-0.0146,-0.0175,-0.0175,-0.0177,-0.0193,-0.0191,-0.0192,-0.0193,-0.0193,-0.0196,-0.0196,0,0,0,0,0,0,-0.0168,-0.0169,-0.0131,-0.0132,-0.0156,-0.0159,-0.0157,-0.014,-0.0155,-0.0158,-0.0146,-0.0147,-0.0172,-0.0175,-0.0178,-0.0154,-0.0192,-0.0193,-0.0194,-0.0197,-0.0196,-0.0195,0,0,0,0,0,0,-0.0169,-0.0164,-0.013,-0.0153,-0.015,-0.0158,-0.0138,-0.014,-0.0137,-0.0158,-0.0161,-0.0142,-0.0173,-0.0177,-0.0177,-0.0157,-0.0194,-0.0195,-0.0198,-0.0197,-0.0196,-0.0123,0,0,0,0,0,0,-0.017,-0.0164,-0.015,-0.0152,-0.0149,-0.012,-0.0138,-0.014,-0.0139,-0.014,-0.0156,-0.016,-0.0173,-0.0175,-0.0178,-0.0159,-0.0196,-0.0198,-0.0197,-0.0196,-0.0126,-0.012,-0.0114,0,0,0,0,0,-0.0172,-0.0148,-0.0148,-0.0144,-0.0128,-0.0119,-0.0119,-0.0126,-0.0139,-0.0127,-0.014,-0.0159,-0.017,-0.0175,-0.0179,-0.016,-0.0199,-0.0197,-0.0196,-0.0129,-0.0121,-0.0114,0,0,0,0,0,0,-0.0165,-0.0146,-0.0147,-0.0119,-0.0115,-0.0121,-0.0114,-0.0123,-0.0124,-0.0126,-0.015,-0.0154,-0.015,-0.0166,-0.0171,-0.0158,-0.0188,-0.0187,-0.0136,-0.0128,-0.0122,-0.0099,-0.0197,0,0,0,0,0,-0.0156,-0.013,-0.0126,-0.0103,-0.01,-0.0107,-0.0106,-0.0108,-0.0112,-0.0113,-0.0124,-0.0137,-0.0147,-0.0146,-0.0159,-0.0148,-0.0175,-0.0139,-0.0133,-0.0128,-0.0112,-0.0143,-0.0138,-0.0191,-0.0191,-0.0191,0,0,-0.0146,-0.0135,-0.0119,-0.01,-0.0099,-0.0071,-0.0106,-0.0095,-0.0068,-0.0117,-0.0088,-0.0119,-0.0142,-0.013,-0.0129,-0.0139,-0.0128,-0.0126,-0.0121,-0.0108,-0.0141,-0.0136,-0.0131,-0.019,-0.019,-0.019,0,0,-0.0108,-0.0104,-0.0065,-0.0056,-0.0048,-0.0049,-0.0043,-0.0041,-0.0037,-0.002,-0.0052,-0.0067,-0.0073,-0.0083,-0.0091,-0.006,-0.0101,-0.0068,-0.0009,-0.0039,-0.0035,-0.0031,-0.006,-0.006,-0.0057,-0.0057,-0.0057,0,-0.0092,-0.0042,-0.0056,-0.0019,-0.0,-0.0032,0.0015,0.0015,0.0018,0.0028,0.0002,-0.0017,-0.0046,-0.0032,-0.0024,-0.0044,-0.007,-0.0033,-0.003,-0.0028,-0.0025,-0.0056,-0.0057,-0.0053,-0.0054,-0.0054,-0.0055,0,-0.0025,0.0016,0.0035,0.0081,0.0095,0.0126,0.0127,0.0138,0.0128,0.0126,0.0128,0.0082,0.0073,0.0055,0.0026,0.0032,0.0005,-0.0025,-0.0046,-0.0015,-0.005,-0.0052,-0.0048,-0.005,-0.0051,-0.0052,0,0,0.0032,0.0079,0.0092,0.0133,0.0154,0.018,0.0216,0.0247,0.028,0.0251,0.0285,0.0242,0.0198,0.0186,0.0136,0.0108,0.0088,0.0055,0.0052,0.0032,0.0021,-0.0001,-0.0006,0.0055,0.0055,0.0055,-0.001,0,0.0101,0.0192,0.0196,0.0287,0.0337,0.0322,0.0367,0.0382,0.0378,0.0396,0.0331,0.0334,0.0255,0.0244,0.0203,0.012,0.0087,0.0109,-0.001,-0.0013,-0.0032,-0.0007,0.003,-0.0025,-0.0012,-0.0012,-0.0013,0,0.0183,0.0234,0.0336,0.0408,0.0429,0.0469,0.053,0.0568,0.0567,0.0562,0.0532,0.0471,0.0424,0.0345,0.0225,0.0242,0.0142,0.0068,0.0063,0.002,-0.0038,-0.0054,-0.003,-0.023,-0.0016,-0.0016,-0.0016,0,0.0248,0.0339,0.0427,0.0452,0.0521,0.0559,0.0591,0.0617,0.067,0.0659,0.0684,0.0596,0.0571,0.0434,0.0268,0.0246,0.0131,0.008,-0.0033,-0.0037,-0.0038,-0.0041,-0.0213,-0.0005,-0.0005,-0.0005,-0.0005,0,0.0336,0.0405,0.0463,0.0511,0.0623,0.0635,0.074,0.0757,0.0794,0.0876,0.0771,0.0803,0.0591,0.0491,0.0317,0.0147,0.0165,-0.0012,-0.005,-0.0013,-0.0012,-0.0214,-0.0317,-0.0007,-0.0007,-0.0006,-0.0006,0,0.0409,0.0444,0.0546,0.0624,0.0661,0.0739,0.0841,0.0911,0.0934,0.1032,0.1033,0.0962,0.0837,0.0618,0.0403,0.0234,-0.0048,-0.0017,0.0041,0.0011,-0.0287,-0.0386,-0.0573,-0.0645,-0.0148,-0.0149,-0.015,0,0.0457,0.0518,0.0632,0.0699,0.0739,0.0848,0.0931,0.0983,0.1066,0.1144,0.1202,0.1107,0.1081,0.0753,0.0425,0.0124,-0.0064,-0.0054,-0.0094,-0.0289,-0.0428,-0.0501,-0.0553,-0.0072,-0.0072,-0.0072,-0.0072,0,0.0545,0.0579,0.066,0.0798,0.0894,0.1023,0.1136,0.1225,0.1308,0.1397,0.1489,0.1471,0.1169,0.0881,0.0452,0.0233,-0.0174,-0.0064,-0.0279,-0.0386,-0.0463,-0.0553,-0.0052,-0.0072,-0.0072,-0.0072,-0.0072,-0.0072,0.0605,0.0674,0.0774,0.091,0.1029,0.1183,0.1299,0.1425,0.159,0.1751,0.1711,0.1754,0.1321,0.0748,0.0402,-0.019,-0.0197,-0.0365,-0.0469,-0.0526,-0.0596,-0.0095,-0.0153,-0.0154,-0.0154,-0.0155,-0.0155,0,0.0682,0.0756,0.0877,0.1037,0.1175,0.1231,0.1435,0.1565,0.1773,0.1931,0.2022,0.1867,0.132,0.0749,-0.0045,-0.0495,-0.0652,-0.0751,-0.0852,-0.0886,-0.0449,-0.0447,-0.0556,-0.0555,-0.0555,-0.0555,-0.0555,-0.0555,0.0723,0.0844,0.0905,0.1138,0.1253,0.1458,0.1584,0.1787,0.1952,0.2173,0.2242,0.2259,0.1839,0.0348,-0.067,-0.0903,-0.1185,-0.1274,-0.1435,-0.1156,-0.1128,-0.1101,-0.1126,-0.1375,-0.1376,-0.1797,-0.1801,-0.1805]}],[{"header":{"parameterUnit":"m.s-1","parameterCategory":2,"la1":30.2991,"la2":30.254,"lo1":-89.0895,"lo2":-89.0444,"dy":0.0017,"dx":0.0017,"nx":28,"ny":28,"refTime":"2024-05-15T03:00:00:Z","depth":"2","parameterNumber":2,"parameterNumberName":"U-component_of_CURRENTS"},"data":[0,0,0,0,0,0,0,0,0,0,0,0,0,0,0,0,0,0,0,0,0,0,0,0,0,0,0,0,0,0,0,0,0,0,0,0,0,0,0,0,0,0,0,0,0,0,0,0,0,0,0,0,0,0,0,0,0,0,0.3101,0.3101,0,0.3102,0.3102,0.3102,0.3099,0.3099,0.3099,0.3099,0.3093,0.3093,0.3093,0,0,0,0,0,0,0,0,0,0,0,0,0,0.3152,0.3151,0.3101,0.3101,0.3102,0.3102,0.3102,0.3102,0.3099,0.3099,0.3099,0.3099,0.3093,0.3093,0.3093,0,0,0,0,0,0,0,0,0,0,0,0,0,0.3136,0.315,0.3101,0.3102,0.3103,0.3102,0.3102,0.3101,0.3098,0.3099,0.3099,0.3099,0.3093,0.3093,0.3093,0.3084,0,0,0.3091,0.3091,0,0,0,0,0,0,0,0,0.3137,0.3134,0.3102,0.3102,0.3103,0.3103,0.3118,0.3096,0.3098,0.3097,0.3099,0.3099,0.3098,0.3097,0.3092,0.3084,0.3084,0.3091,0.3091,0.309,0.309,0,0,0,0,0,0,0,0.3138,0.3134,0.3099,0.3102,0.3103,0.3122,0.3119,0.3114,0.3093,0.3097,0.3098,0.3102,0.3097,0.3093,0.3092,0.3084,0.3091,0.3091,0.309,0.309,0.313,0.3132,0,0,0,0,0,0,0.314,0.3135,0.3099,0.3099,0.3124,0.3121,0.3118,0.31,0.3094,0.3094,0.3102,0.3102,0.3093,0.3093,0.3092,0.3138,0.309,0.309,0.309,0.3129,0.3131,0.3132,0,0,0,0,0,0,0.3141,0.3136,0.3099,0.3121,0.3118,0.312,0.31,0.31,0.3108,0.3098,0.3097,0.3112,0.3094,0.3093,0.3104,0.3135,0.309,0.3089,0.3127,0.3129,0.3131,0.3194,0,0,0,0,0,0,0.3142,0.3136,0.3132,0.312,0.3117,0.3108,0.31,0.31,0.3111,0.3112,0.3106,0.3105,0.3094,0.3105,0.3104,0.3134,0.3089,0.3126,0.3128,0.3131,0.319,0.3198,0.3204,0,0,0,0,0,0.3144,0.3116,0.3131,0.3128,0.3107,0.3109,0.3109,0.311,0.3112,0.3117,0.3119,0.3106,0.3121,0.3105,0.3104,0.3135,0.3124,0.3127,0.313,0.3187,0.3196,0.3204,0,0,0,0,0,0,0.3112,0.3113,0.3129,0.3098,0.3117,0.3109,0.3109,0.3118,0.3123,0.3125,0.3116,0.3115,0.3145,0.3127,0.3111,0.3155,0.3123,0.3126,0.3167,0.3176,0.3183,0.3191,0.3089,0,0,0,0,0,0.3112,0.3107,0.3116,0.3098,0.3105,0.3116,0.312,0.3127,0.3128,0.3131,0.3132,0.3137,0.3153,0.3154,0.3162,0.3173,0.3182,0.3195,0.3202,0.3208,0.3215,0.326,0.3272,0.3142,0.3142,0.3142,0,0,0.3096,0.3098,0.3094,0.3096,0.3105,0.3123,0.3117,0.3125,0.3149,0.3129,0.3155,0.3165,0.3165,0.319,0.3201,0.3178,0.3251,0.3212,0.3217,0.3221,0.3264,0.3277,0.3288,0.3144,0.3144,0.3143,0,0,0.3065,0.3065,0.3061,0.3085,0.3112,0.3125,0.3134,0.3147,0.3162,0.319,0.3194,0.3222,0.3229,0.3244,0.325,0.3298,0.3295,0.3303,0.3336,0.338,0.3391,0.3401,0.3435,0.3447,0.3297,0.3297,0.3297,0,0.305,0.3045,0.3061,0.3076,0.3099,0.3131,0.3147,0.3169,0.319,0.3213,0.3207,0.3261,0.3259,0.3305,0.3324,0.3316,0.3336,0.3303,0.339,0.34,0.3409,0.3441,0.3454,0.3301,0.33,0.33,0.33,0,0.3029,0.3042,0.3039,0.308,0.3107,0.3122,0.3168,0.3202,0.3231,0.326,0.3319,0.3327,0.336,0.3369,0.3359,0.3427,0.342,0.3403,0.3369,0.3426,0.3456,0.3469,0.3306,0.3304,0.3303,0.3303,0,0,0.2934,0.3012,0.3011,0.3048,0.3114,0.3126,0.3187,0.3245,0.329,0.333,0.3385,0.3425,0.3444,0.3453,0.3455,0.3486,0.3568,0.3472,0.3473,0.3507,0.3668,0.3638,0.3648,0.357,0.3572,0.3574,0.3665,0,0.2914,0.2953,0.2995,0.3042,0.3072,0.3141,0.3195,0.3262,0.3322,0.3385,0.3428,0.3478,0.3472,0.3493,0.3533,0.3566,0.3603,0.3545,0.3606,0.3608,0.3575,0.3662,0.3386,0.3442,0.3677,0.3679,0.368,0,0.2871,0.2914,0.2955,0.305,0.3065,0.3101,0.3204,0.3258,0.3371,0.3417,0.3492,0.3533,0.3607,0.3579,0.3682,0.3648,0.3667,0.3682,0.3686,0.3644,0.3601,0.3422,0.3455,0.3701,0.3699,0.3698,0.3696,0,0.2803,0.2877,0.2913,0.2945,0.3053,0.3087,0.3151,0.3268,0.3336,0.3444,0.3512,0.3596,0.3658,0.3702,0.3761,0.3727,0.3864,0.3815,0.3805,0.3802,0.3572,0.3545,0.3881,0.3881,0.3881,0.388,0.388,0,0.2758,0.2783,0.2886,0.2905,0.2955,0.305,0.3122,0.3201,0.3337,0.342,0.3523,0.3606,0.3696,0.3789,0.3802,0.3866,0.3906,0.3837,0.3836,0.3587,0.3562,0.3779,0.3766,0.3884,0.3883,0.3882,0.3882,0,0.2671,0.2739,0.2784,0.2892,0.2923,0.296,0.3104,0.3163,0.3308,0.3425,0.3467,0.365,0.3769,0.3856,0.3944,0.3931,0.3971,0.3973,0.3679,0.3642,0.3863,0.3853,0.3967,0.3967,0.3967,0.3967,0.3967,0,0.2633,0.2649,0.2749,0.2775,0.2818,0.2898,0.2953,0.3115,0.3194,0.3439,0.3483,0.3675,0.3771,0.3927,0.3937,0.3978,0.4009,0.3729,0.3612,0.3891,0.3878,0.3867,0.3857,0.3326,0.3321,0.3316,0.3313,0,0.2558,0.2591,0.263,0.2691,0.2738,0.2799,0.2902,0.2968,0.316,0.3284,0.3452,0.3563,0.3746,0.3689,0.3779,0.3751,0.3701,0.3645,0.4022,0.3359,0.3297,0.3282,0.329,0.3274,0.3278,0.3281,0.3283,0.3285,0.2491,0.2498,0.2553,0.2592,0.2643,0.2685,0.2701,0.2824,0.2938,0.309,0.3291,0.3364,0.3455,0.3461,0.3382,0.3331,0.3575,0.3399,0.3407,0.3421,0.3343,0.3286,0.3245,0.3249,0.3252,0.3255,0.3257,0,0.2402,0.2425,0.2458,0.249,0.2486,0.2564,0.264,0.2634,0.2695,0.2874,0.2998,0.2864,0.2883,0.2951,0.2837,0.2872,0.2784,0.2736,0.2584,0.2629,0.2667,0.2543,0.2237,0.2233,0.2229,0.2226,0,0,0.2359,0.2345,0.2359,0.2317,0.2339,0.2301,0.2314,0.233,0.2412,0.2445,0.2484,0.2752,0.2891,0.2516,0.2501,0.2337,0.244,0.2247,0.3083,0.295,0.2982,0.3094,0.2962,0,0,0,0,0]},{"header":{"parameterUnit":"m.s-1","parameterCategory":2,"la1":30.2991,"la2":30.254,"lo1":-89.0895,"lo2":-89.0444,"dy":0.0017,"dx":0.0017,"nx":28,"ny":28,"refTime":"2024-05-15T03:00:00:Z","depth":"2","parameterNumber":3,"parameterNumberName":"V-component_of_CURRENTS"},"data":[0,0,0,0,0,0,0,0,0,0,0,0,0,0,0,0,0,0,0,0,0,0,0,0,0,0,0,0,0,0,0,0,0,0,0,0,0,0,0,0,0,0,0,0,0,0,0,0,0,0,0,0,0,0,0,0,0,0,-0.0077,-0.0078,0,-0.0101,-0.0101,-0.0102,-0.0109,-0.0109,-0.0109,-0.0109,-0.0144,-0.0145,-0.0146,0,0,0,0,0,0,0,0,0,0,0,0,0,-0.0023,-0.0024,-0.0077,-0.0078,-0.0078,-0.0101,-0.0101,-0.0102,-0.0109,-0.0109,-0.0109,-0.0109,-0.0144,-0.0145,-0.0146,0,0,0,0,0,0,0,0,0,0,0,0,0,-0.0044,-0.0024,-0.0077,-0.0087,-0.0088,-0.0101,-0.0102,-0.0102,-0.0109,-0.0109,-0.0109,-0.0109,-0.0143,-0.0145,-0.0146,-0.0149,0,0,-0.0149,-0.015,0,0,0,0,0,0,0,0,-0.0043,-0.0046,-0.0085,-0.0086,-0.0088,-0.0105,-0.0095,-0.0119,-0.0109,-0.0098,-0.0109,-0.011,-0.0133,-0.0135,-0.0136,-0.0151,-0.0152,-0.015,-0.015,-0.0151,-0.0151,0,0,0,0,0,0,0,-0.0042,-0.0045,-0.0084,-0.0085,-0.0087,-0.0085,-0.0088,-0.0099,-0.0112,-0.0099,-0.01,-0.0107,-0.0134,-0.0134,-0.0137,-0.0153,-0.0149,-0.0151,-0.0151,-0.0152,-0.0161,-0.0161,0,0,0,0,0,0,-0.0045,-0.0044,-0.0083,-0.0085,-0.0068,-0.0086,-0.009,-0.0097,-0.0112,-0.0115,-0.0107,-0.0108,-0.0132,-0.0135,-0.0138,-0.012,-0.0151,-0.0152,-0.0153,-0.0162,-0.0161,-0.0161,0,0,0,0,0,0,-0.0044,-0.0048,-0.0082,-0.0067,-0.0072,-0.0087,-0.0095,-0.0097,-0.0097,-0.0119,-0.0122,-0.0105,-0.0132,-0.0136,-0.0138,-0.0122,-0.0152,-0.0154,-0.0162,-0.0162,-0.0161,-0.0099,0,0,0,0,0,0,-0.0042,-0.0047,-0.005,-0.0067,-0.0073,-0.008,-0.0095,-0.0098,-0.0102,-0.0103,-0.0118,-0.0121,-0.0133,-0.0136,-0.0139,-0.0125,-0.0154,-0.0163,-0.0162,-0.0161,-0.0102,-0.0097,-0.0092,0,0,0,0,0,-0.004,-0.0044,-0.005,-0.0054,-0.0077,-0.008,-0.0081,-0.0091,-0.0102,-0.0093,-0.0104,-0.0121,-0.0133,-0.0136,-0.014,-0.0126,-0.0163,-0.0162,-0.0161,-0.0104,-0.0098,-0.0092,0,0,0,0,0,0,-0.0023,-0.0046,-0.0052,-0.0064,-0.0066,-0.0082,-0.0081,-0.0089,-0.0091,-0.0092,-0.0113,-0.0116,-0.0115,-0.013,-0.0133,-0.0127,-0.0152,-0.0151,-0.0107,-0.0101,-0.0096,-0.0077,-0.0155,0,0,0,0,0,-0.002,-0.0029,-0.0044,-0.0051,-0.0053,-0.0066,-0.0069,-0.0072,-0.0081,-0.0082,-0.0092,-0.0104,-0.0114,-0.0114,-0.0126,-0.012,-0.0146,-0.0115,-0.011,-0.0105,-0.0093,-0.0126,-0.0123,-0.0157,-0.0157,-0.0157,0,0,-0.0018,-0.0031,-0.0037,-0.0048,-0.0053,-0.0035,-0.0067,-0.0066,-0.0044,-0.0086,-0.0062,-0.009,-0.0111,-0.0102,-0.0103,-0.0111,-0.011,-0.0104,-0.01,-0.009,-0.0124,-0.0121,-0.0118,-0.0157,-0.0157,-0.0157,0,0,-0.0,-0.0025,-0.0015,-0.0011,-0.0014,-0.0018,-0.0015,-0.0022,-0.0019,-0.0006,-0.0033,-0.0049,-0.0055,-0.0066,-0.0074,-0.005,-0.0088,-0.0057,-0.0008,-0.0041,-0.0038,-0.0036,-0.0067,-0.0068,-0.0048,-0.0048,-0.0048,0,0.0009,0.0022,-0.001,0.0013,0.0026,-0.0005,0.0031,0.0028,0.0026,0.0033,0.0013,-0.0008,-0.0034,-0.0027,-0.002,-0.0038,-0.0063,-0.0028,-0.0034,-0.0032,-0.0031,-0.0064,-0.0066,-0.0045,-0.0045,-0.0046,-0.0046,0,0.0045,0.0063,0.0069,0.0092,0.0101,0.0121,0.0118,0.0127,0.0118,0.0115,0.0113,0.0072,0.0062,0.0044,0.0021,0.0019,-0.0004,-0.0029,-0.0046,-0.0024,-0.006,-0.0063,-0.0041,-0.0042,-0.0043,-0.0043,0,0,0.0061,0.0091,0.01,0.0137,0.0149,0.0167,0.0195,0.0218,0.0245,0.0217,0.0243,0.0202,0.0165,0.0153,0.0109,0.0079,0.0054,0.0036,0.0032,0.001,-0.0016,-0.004,-0.0046,0.0027,0.0026,0.0026,-0.0045,0,0.0112,0.018,0.0178,0.0255,0.0295,0.0283,0.0321,0.0332,0.0326,0.0339,0.0279,0.028,0.0212,0.0203,0.0161,0.0084,0.0049,0.0076,-0.0039,-0.0042,-0.0062,-0.005,-0.0013,-0.0073,-0.0048,-0.0049,-0.0049,0,0.0166,0.0206,0.0292,0.0358,0.0374,0.0408,0.0461,0.0493,0.0487,0.0482,0.0452,0.0398,0.0349,0.0283,0.0165,0.0186,0.0094,0.0024,0.0019,-0.0023,-0.0071,-0.0093,-0.0081,-0.0056,-0.0055,-0.0055,-0.0054,0,0.0219,0.0293,0.037,0.0393,0.0453,0.0486,0.0515,0.0535,0.0581,0.0567,0.0587,0.0503,0.0478,0.035,0.0197,0.0182,0.0061,0.002,-0.0089,-0.0092,-0.0092,-0.0095,-0.0066,-0.0066,-0.0066,-0.0066,-0.0065,0,0.0289,0.0349,0.0401,0.0444,0.0544,0.0554,0.0646,0.0661,0.0691,0.0762,0.0665,0.0689,0.0493,0.0396,0.0237,0.0072,0.0089,-0.0074,-0.0109,-0.0071,-0.007,-0.008,-0.0081,-0.0068,-0.0068,-0.0067,-0.0067,0,0.0352,0.0382,0.0472,0.0542,0.0576,0.0648,0.0741,0.0801,0.0819,0.0904,0.0905,0.0831,0.0707,0.0502,0.0297,0.0143,-0.0028,-0.0095,-0.0037,-0.0064,-0.0172,-0.0169,-0.0222,-0.0223,-0.0225,-0.0226,-0.0226,0,0.0393,0.0447,0.0551,0.0612,0.0648,0.0748,0.0824,0.0869,0.0942,0.1003,0.1054,0.0954,0.0914,0.0599,0.03,0.0019,-0.0026,-0.0141,-0.017,-0.0158,-0.0187,-0.0182,-0.0177,-0.015,-0.015,-0.015,-0.015,0,0.0471,0.0502,0.0576,0.0703,0.0792,0.0909,0.1012,0.109,0.1162,0.1232,0.1301,0.127,0.0977,0.0695,0.0296,0.0106,-0.0097,-0.0152,-0.0148,-0.0115,-0.0096,-0.0122,-0.0119,-0.0151,-0.0151,-0.0151,-0.0151,-0.0151,0.0527,0.0588,0.068,0.0806,0.0916,0.1057,0.1161,0.1269,0.141,0.1532,0.1485,0.146,0.1123,0.0627,0.0267,-0.0112,-0.0091,-0.0221,-0.0218,-0.0216,-0.0194,-0.0178,-0.0244,-0.0244,-0.0245,-0.0245,-0.0245,0,0.0597,0.0663,0.0775,0.0922,0.1049,0.1103,0.1286,0.1395,0.1568,0.1666,0.1722,0.1423,0.1092,0.0697,0.0141,-0.0192,-0.0215,-0.0299,-0.0253,-0.0248,-0.0245,-0.0224,-0.0283,-0.0284,-0.0286,-0.0287,0,0,0.0634,0.0744,0.0799,0.1014,0.1122,0.1311,0.1425,0.1588,0.1703,0.181,0.1801,0.1732,0.1243,0.0831,0.0369,0.0043,-0.0022,-0.0018,0.0054,0.017,0.0177,-0.0155,-0.0111,0,0,0,0,0]}],[{"header":{"parameterUnit":"m.s-1","parameterCategory":2,"la1":30.2991,"la2":30.254,"lo1":-89.0895,"lo2":-89.0444,"dy":0.0017,"dx":0.0017,"nx":28,"ny":28,"refTime":"2024-05-15T03:00:00:Z","depth":"4","parameterNumber":2,"parameterNumberName":"U-component_of_CURRENTS"},"data":[0,0,0,0,0,0,0,0,0,0,0,0,0,0,0,0,0,0,0,0,0,0,0,0,0,0,0,0,0,0,0,0,0,0,0,0,0,0,0,0,0,0,0,0,0,0,0,0,0,0,0,0,0,0,0,0,0,0,0.2083,0.2085,0,0.2176,0.2177,0.2177,0.2245,0.2247,0.2248,0.2249,0.2332,0.2333,0.2334,0,0,0,0,0,0,0,0,0,0,0,0,0,0.1877,0.1881,0.2083,0.2085,0.2087,0.2176,0.2177,0.2177,0.2245,0.2247,0.2248,0.2249,0.2331,0.2333,0.2334,0,0,0,0,0,0,0,0,0,0,0,0,0,0.1963,0.1882,0.2083,0.2136,0.2142,0.2176,0.2177,0.2178,0.2245,0.2247,0.2248,0.225,0.2331,0.2332,0.2334,0.2311,0,0,0.234,0.234,0,0,0,0,0,0,0,0,0.1958,0.1969,0.2126,0.2132,0.2139,0.2206,0.2135,0.2224,0.2245,0.22,0.2249,0.2251,0.2291,0.2296,0.2302,0.2315,0.2319,0.234,0.2341,0.2341,0.2342,0,0,0,0,0,0,0,0.1952,0.1965,0.2114,0.2128,0.2136,0.2125,0.2139,0.2151,0.223,0.2204,0.221,0.2229,0.2294,0.23,0.2304,0.232,0.234,0.2341,0.2342,0.2343,0.2459,0.2461,0,0,0,0,0,0,0.1956,0.1961,0.2111,0.2118,0.2057,0.2128,0.2144,0.2178,0.223,0.2242,0.2228,0.2232,0.2296,0.2302,0.2308,0.2409,0.2341,0.2343,0.2344,0.2457,0.246,0.2462,0,0,0,0,0,0,0.1951,0.1969,0.2108,0.2044,0.2062,0.2131,0.2168,0.2179,0.2232,0.225,0.226,0.2276,0.2298,0.2305,0.2362,0.2408,0.2344,0.2345,0.2455,0.2458,0.2461,0.2532,0,0,0,0,0,0,0.1945,0.1967,0.2009,0.2045,0.2066,0.2156,0.2168,0.218,0.2241,0.2249,0.2293,0.23,0.23,0.2359,0.2363,0.241,0.2347,0.2452,0.2456,0.246,0.2527,0.2537,0.2545,0,0,0,0,0,0.1937,0.1981,0.2011,0.203,0.2118,0.2158,0.2167,0.2216,0.2242,0.2268,0.2306,0.2301,0.2387,0.2362,0.2366,0.2414,0.245,0.2455,0.246,0.2523,0.2535,0.2545,0,0,0,0,0,0,0.1912,0.1994,0.2027,0.2096,0.214,0.2173,0.2211,0.2239,0.2287,0.231,0.2321,0.233,0.2402,0.2395,0.2368,0.246,0.242,0.2426,0.2467,0.2478,0.2487,0.2487,0.2348,0,0,0,0,0,0.1927,0.1991,0.2047,0.2107,0.2132,0.2179,0.221,0.2244,0.2284,0.231,0.2343,0.2379,0.2415,0.2438,0.2465,0.2506,0.2505,0.2543,0.2552,0.256,0.2564,0.2605,0.2618,0.2477,0.2477,0.2477,0,0,0.1936,0.1991,0.2029,0.2108,0.2147,0.2187,0.2202,0.2263,0.2306,0.2308,0.2388,0.2418,0.2436,0.2493,0.2523,0.2498,0.2601,0.2566,0.2572,0.2572,0.2611,0.2625,0.2637,0.248,0.248,0.2479,0,0,0.1959,0.2034,0.2082,0.2124,0.2199,0.2224,0.2252,0.2311,0.2354,0.242,0.2442,0.25,0.2549,0.2573,0.2587,0.2662,0.2654,0.2681,0.2723,0.2763,0.2774,0.2785,0.2804,0.2816,0.2679,0.2679,0.2679,0,0.1969,0.204,0.2099,0.2145,0.2187,0.2245,0.2287,0.2332,0.2406,0.2445,0.2461,0.2565,0.2585,0.2648,0.2681,0.2683,0.2699,0.2677,0.2774,0.2784,0.2794,0.2811,0.2823,0.2683,0.2683,0.2682,0.2682,0,0.2008,0.2077,0.2107,0.2192,0.2239,0.2289,0.2353,0.2415,0.2476,0.2519,0.2618,0.2652,0.2712,0.2733,0.2732,0.2813,0.2802,0.2786,0.2742,0.2812,0.2826,0.2837,0.2689,0.2687,0.2686,0.2685,0,0,0.199,0.2112,0.2126,0.217,0.2271,0.2304,0.2391,0.2471,0.2534,0.2617,0.2692,0.2769,0.2805,0.2824,0.284,0.2874,0.2956,0.2865,0.2866,0.2879,0.3043,0.2863,0.2857,0.2964,0.2967,0.2968,0.3027,0,0.2003,0.2089,0.2151,0.2231,0.2275,0.2358,0.2427,0.2514,0.2594,0.2681,0.2745,0.2825,0.2833,0.2877,0.2919,0.2954,0.2988,0.2941,0.2979,0.2979,0.2806,0.2864,0.2976,0.3035,0.3037,0.3039,0.304,0,0.2006,0.207,0.215,0.2257,0.2285,0.2345,0.2468,0.2541,0.267,0.2733,0.283,0.2884,0.2975,0.2959,0.3059,0.3035,0.3051,0.3062,0.3064,0.2876,0.2818,0.2951,0.3059,0.3058,0.3056,0.3055,0.3054,0,0.1944,0.2061,0.2126,0.2165,0.2295,0.2356,0.2436,0.2568,0.2644,0.278,0.285,0.2953,0.3027,0.3073,0.3125,0.3106,0.3209,0.3177,0.3025,0.3013,0.3126,0.3114,0.3235,0.3234,0.3234,0.3234,0.3234,0,0.1911,0.1966,0.2111,0.2144,0.2228,0.2337,0.244,0.2532,0.2678,0.2758,0.2882,0.2948,0.3066,0.314,0.3155,0.3126,0.3241,0.3039,0.3018,0.3155,0.3146,0.3133,0.3121,0.3236,0.3236,0.3235,0.3235,0,0.1825,0.1922,0.2001,0.215,0.2201,0.2267,0.244,0.2505,0.2663,0.2773,0.2825,0.2986,0.3068,0.3155,0.3229,0.315,0.3142,0.3101,0.3252,0.3238,0.2909,0.29,0.292,0.2914,0.291,0.2905,0.2902,0,0.1785,0.1822,0.1985,0.2034,0.2108,0.2227,0.2299,0.2474,0.2542,0.2764,0.2791,0.2949,0.3027,0.2989,0.309,0.3096,0.3064,0.3034,0.2954,0.2899,0.2879,0.2877,0.2875,0.2894,0.2893,0.2891,0.289,0,0.1703,0.178,0.1846,0.1951,0.2036,0.2116,0.2239,0.2276,0.2464,0.2629,0.2685,0.2733,0.282,0.2866,0.2901,0.29,0.3034,0.2981,0.299,0.2915,0.2868,0.2852,0.2855,0.2873,0.2876,0.2877,0.2878,0,0.1645,0.167,0.177,0.1841,0.1938,0.1975,0.2059,0.2135,0.2226,0.2463,0.2472,0.2634,0.2784,0.2765,0.2797,0.2785,0.2735,0.2631,0.2657,0.2677,0.2571,0.2475,0.2344,0,0,0,0,0,0.1575,0.1589,0.165,0.1714,0.18,0.1858,0.1997,0.2085,0.2264,0.2236,0.2351,0.2412,0.2464,0.2551,0.249,0.2698,0.2753,0.2615,0.2648,0.2778,0.2798,0.2696,0,0,0,0,0,0,0.1529,0.1584,0.1603,0.1587,0.1604,0.1681,0.1764,0.1891,0.1887,0.2078,0.2116,0.2258,0.2345,0.2467,0.2439,0.2465,0.2435,0.272,0.2714,0.2767,0.2785,0.2801,0.2703,0,0,0,0,0]},{"header":{"parameterUnit":"m.s-1","parameterCategory":2,"la1":30.2991,"la2":30.254,"lo1":-89.0895,"lo2":-89.0444,"dy":0.0017,"dx":0.0017,"nx":28,"ny":28,"refTime":"2024-05-15T03:00:00:Z","depth":"4","parameterNumber":3,"parameterNumberName":"V-component_of_CURRENTS"},"data":[0,0,0,0,0,0,0,0,0,0,0,0,0,0,0,0,0,0,0,0,0,0,0,0,0,0,0,0,0,0,0,0,0,0,0,0,0,0,0,0,0,0,0,0,0,0,0,0,0,0,0,0,0,0,0,0,0,0,0.0009,0.0008,0,-0.0018,-0.0018,-0.0018,-0.0024,-0.0024,-0.0024,-0.0024,-0.0053,-0.0054,-0.0054,0,0,0,0,0,0,0,0,0,0,0,0,0,0.0092,0.0091,0.0009,0.0008,0.0007,-0.0018,-0.0018,-0.0018,-0.0024,-0.0024,-0.0024,-0.0024,-0.0053,-0.0054,-0.0054,0,0,0,0,0,0,0,0,0,0,0,0,0,0.0062,0.009,0.0009,-0.0001,-0.0002,-0.0018,-0.0018,-0.0018,-0.0024,-0.0024,-0.0024,-0.0024,-0.0053,-0.0054,-0.0055,-0.0059,0,0,-0.0058,-0.0058,0,0,0,0,0,0,0,0,0.0064,0.006,0.0001,0.0,-0.0002,-0.002,0.0001,-0.0033,-0.0024,-0.0012,-0.0024,-0.0024,-0.0044,-0.0046,-0.0046,-0.006,-0.0062,-0.0058,-0.0059,-0.0059,-0.0059,0,0,0,0,0,0,0,0.0066,0.0061,0.0001,0.0001,-0.0001,0.0009,0.0005,-0.0005,-0.0025,-0.0013,-0.0015,-0.0022,-0.0045,-0.0045,-0.0047,-0.0062,-0.0058,-0.0059,-0.0059,-0.006,-0.0076,-0.0076,0,0,0,0,0,0,0.0061,0.0063,0.0002,-0.0,0.0028,0.0007,0.0003,-0.0012,-0.0025,-0.0028,-0.0022,-0.0022,-0.0043,-0.0046,-0.0048,-0.004,-0.0059,-0.006,-0.0061,-0.0076,-0.0076,-0.0076,0,0,0,0,0,0,0.0063,0.0056,0.0003,0.0029,0.0023,0.0005,-0.001,-0.0012,-0.0013,-0.0032,-0.0034,-0.0021,-0.0044,-0.0047,-0.0049,-0.0041,-0.006,-0.0061,-0.0076,-0.0076,-0.0076,-0.0032,0,0,0,0,0,0,0.0066,0.0057,0.0049,0.0028,0.0021,-0.0,-0.0011,-0.0013,-0.0019,-0.002,-0.0032,-0.0035,-0.0044,-0.0047,-0.005,-0.0043,-0.0062,-0.0077,-0.0076,-0.0076,-0.0033,-0.003,-0.0027,0,0,0,0,0,0.0069,0.0054,0.0049,0.0042,0.0009,-0.0,-0.0002,-0.0013,-0.0019,-0.0014,-0.0022,-0.0035,-0.0047,-0.0048,-0.0051,-0.0044,-0.0077,-0.0076,-0.0076,-0.0035,-0.0031,-0.0027,0,0,0,0,0,0,0.0084,0.0051,0.0045,0.002,0.0015,-0.0002,-0.0006,-0.0011,-0.0014,-0.0014,-0.003,-0.0032,-0.0034,-0.0046,-0.0047,-0.0049,-0.0066,-0.0066,-0.0033,-0.0029,-0.0026,-0.0012,-0.0063,0,0,0,0,0,0.0083,0.0065,0.0045,0.0028,0.0023,0.0011,0.0006,0.0002,-0.0007,-0.0008,-0.0016,-0.0026,-0.0035,-0.0037,-0.0047,-0.0045,-0.0069,-0.0045,-0.0042,-0.0039,-0.003,-0.0062,-0.0061,-0.0074,-0.0074,-0.0074,0,0,0.0082,0.0063,0.0052,0.0031,0.0023,0.0032,0.0009,0.0003,0.0018,-0.0011,0.0004,-0.0016,-0.0033,-0.003,-0.0032,-0.0038,-0.0048,-0.0038,-0.0035,-0.0028,-0.0062,-0.0061,-0.006,-0.0074,-0.0074,-0.0074,0,0,0.0086,0.0058,0.0055,0.0055,0.0046,0.0042,0.0042,0.0032,0.0034,0.0043,0.0023,0.0008,0.0003,-0.0009,-0.0016,-0.0003,-0.0033,-0.0008,0.0025,-0.0006,-0.0006,-0.0005,-0.0036,-0.0039,-0.0003,-0.0002,-0.0002,0,0.0091,0.0085,0.0055,0.0065,0.0074,0.005,0.0071,0.0068,0.0063,0.0068,0.0055,0.0036,0.0015,0.0015,0.0019,0.0005,-0.0016,0.0013,-0.0002,-0.0002,-0.0002,-0.0034,-0.0037,-0.0,-0.0001,-0.0001,-0.0001,0,0.0102,0.0108,0.0107,0.0114,0.0119,0.0129,0.0126,0.0131,0.0127,0.0124,0.012,0.0088,0.0079,0.0063,0.0047,0.0037,0.0021,0.0003,-0.001,0.0002,-0.0033,-0.0037,0.0003,0.0002,0.0001,0.0001,0,0,0.0097,0.0113,0.0118,0.0146,0.0151,0.0162,0.018,0.0194,0.0214,0.0192,0.021,0.0176,0.0149,0.0139,0.0106,0.0075,0.0046,0.0045,0.0042,0.0018,-0.0023,-0.0032,-0.0038,0.0026,0.0026,0.0026,-0.0047,0,0.0126,0.0166,0.0163,0.0217,0.0243,0.0238,0.0266,0.0274,0.027,0.0278,0.0231,0.0232,0.0182,0.0177,0.0137,0.0073,0.0037,0.0067,-0.0033,-0.0036,-0.0043,-0.0043,0.0024,-0.005,-0.0051,-0.0052,-0.0053,0,0.015,0.0177,0.0236,0.0289,0.03,0.0327,0.0368,0.0392,0.0387,0.0383,0.0359,0.0319,0.0275,0.0228,0.0122,0.0146,0.0068,0.0009,0.0004,-0.0021,-0.0054,-0.0065,-0.0061,-0.0061,-0.006,-0.0059,-0.0059,0,0.0181,0.0233,0.0289,0.0306,0.0355,0.0383,0.0409,0.0424,0.0461,0.0449,0.0465,0.0393,0.0373,0.0265,0.0139,0.0132,0.0016,-0.0011,-0.0096,-0.0098,-0.0087,-0.0087,-0.0092,-0.0092,-0.0091,-0.0091,-0.0091,0,0.022,0.0265,0.0311,0.0342,0.0422,0.0434,0.0507,0.0521,0.0546,0.0598,0.0526,0.0536,0.0382,0.0295,0.0165,0.0027,0.0033,-0.0088,-0.0116,-0.0068,-0.0064,-0.0091,-0.009,-0.0094,-0.0093,-0.0093,-0.0092,0,0.0256,0.0282,0.0351,0.0411,0.0443,0.0501,0.0584,0.063,0.0649,0.071,0.0713,0.0646,0.0532,0.0368,0.019,0.0077,-0.0067,-0.0121,-0.0052,-0.0075,-0.0169,-0.0164,-0.0221,-0.0221,-0.0222,-0.0223,-0.0223,0,0.0279,0.0319,0.0409,0.046,0.0494,0.0578,0.0642,0.0686,0.0738,0.0781,0.0813,0.0723,0.0653,0.0409,0.0217,-0.0036,-0.0079,-0.0158,-0.0174,-0.0159,-0.0181,-0.0176,-0.0171,-0.0225,-0.0225,-0.0225,-0.0225,0,0.0324,0.0355,0.0412,0.052,0.0597,0.0694,0.0779,0.0827,0.0885,0.0898,0.0903,0.0774,0.0643,0.0425,0.0226,0.0042,-0.0109,-0.0167,-0.0168,-0.0183,-0.0165,-0.0185,-0.0179,-0.0228,-0.0228,-0.0227,-0.0227,0,0.0359,0.0404,0.048,0.058,0.0682,0.0783,0.0822,0.0886,0.0943,0.0976,0.0972,0.083,0.0741,0.0465,0.0286,0.0099,0.0042,-0.0028,-0.0036,-0.0036,0.0029,0.008,0.0074,0,0,0,0,0,0.0391,0.0443,0.0532,0.0641,0.0741,0.0809,0.0911,0.0938,0.0988,0.1006,0.0994,0.0873,0.0615,0.0503,0.0316,0.0244,-0.0008,0.0016,-0.0097,-0.0243,-0.024,-0.0197,0,0,0,0,0,0,0.041,0.049,0.0535,0.0679,0.0761,0.0883,0.0952,0.0983,0.0989,0.1004,0.0872,0.0817,0.0561,0.0727,0.0312,0.0255,0.0154,-0.0103,-0.0107,-0.0244,-0.0242,-0.0239,-0.0194,0,0,0,0,0]}]]